This is the latest recevied weather packets stored in our database for station/object WD9U. If no packets are shown the sender has not sent any weather packets the latest 10 day(s).
| Time | Temp. | Humidity | Pressure | Rain* | Wind** | Luminosity | Snow |
|---|---|---|---|---|---|---|---|
| 1777508455 | 6.11° C | 52% | 1018.2 hPa | 0 mm | - | 27 W/m² | - |
| 1777508094 | 6.11° C | 52% | 1018.1 hPa | 0 mm | - | 30 W/m² | - |
| 1777507846 | 6.11° C | 51% | 1018.1 hPa | 0 mm | - | 32 W/m² | - |
| 1777507733 | 6.11° C | 52% | 1018.1 hPa | 0 mm | - | 33 W/m² | - |
| 1777507373 | 6.11° C | 51% | 1018.1 hPa | 0 mm | - | 38 W/m² | - |
| 1777507013 | 6.11° C | 51% | 1018.2 hPa | 0 mm | - | 45 W/m² | - |
| 1777506645 | 6.11° C | 51% | 1018.3 hPa | 0 mm | - | 52 W/m² | - |
| 1777506292 | 6.11° C | 50% | 1018.1 hPa | 0 mm | - | 58 W/m² | - |
| 1777505932 | 6.11° C | 49% | 1018.2 hPa | 0 mm | - | 63 W/m² | - |
| 1777505572 | 6.11° C | 50% | 1018.1 hPa | 0 mm | - | 70 W/m² | - |
| 1777505212 | 6.11° C | 48% | 1018.1 hPa | 0 mm | - | 80 W/m² | - |
| 1777504851 | 6.11° C | 47% | 1018.2 hPa | 0 mm | - | 86 W/m² | - |
| 1777504491 | 6.11° C | 48% | 1018.2 hPa | 0 mm | - | 92 W/m² | - |
| 1777504244 | 6.11° C | 48% | 1018.2 hPa | 0 mm | - | 94 W/m² | - |
| 1777504131 | 6.11° C | 48% | 1018.2 hPa | 0 mm | - | 94 W/m² | - |
| 1777503771 | 6.11° C | 48% | 1018.1 hPa | 0 mm | - | 86 W/m² | - |
| 1777503411 | 6.11° C | 47% | 1018.1 hPa | 0 mm | - | 83 W/m² | - |
| 1777503043 | 6.11° C | 47% | 1018.3 hPa | 0 mm | - | 88 W/m² | - |
| 1777502690 | 6.67° C | 48% | 1018.2 hPa | 0 mm | - | 102 W/m² | - |
| 1777502329 | 6.67° C | 48% | 1018.1 hPa | 0 mm | - | 110 W/m² | - |
| 1777501978 | 6.67° C | 48% | 1018.1 hPa | 0 mm | - | 120 W/m² | - |
| 1777501841 | 6.67° C | 50% | 1018.1 hPa | 0 mm | - | 123 W/m² | - |
| 1777501617 | 6.67° C | 51% | 1018.1 hPa | 0 mm | - | 134 W/m² | - |
| 1777501257 | 6.67° C | 50% | 1018.3 hPa | 0 mm | - | 149 W/m² | - |
| 1777500896 | 6.67° C | 49% | 1018.3 hPa | 0 mm | - | 161 W/m² | - |
* Rain latest hour (hover to see other rain measurements)
** Current wind speed in m/s (hover to see current wind gust speed)